Ithaca, NY

7:42 PM EST on December 12, 2017 (GMT -0500)
Tompkins County

Weather History for KITH - June, 2013

Change the Weather History Date:

Monday, June 10, 2013

  Actual Average Record
Temperature  
Mean Temperature 62 °F -  
Max Temperature 65 °F 75 °F 91 °F (2000)
Min Temperature 59 °F 50 °F 33 °F (1988)
Degree Days  
Heating Degree Days 3    
Growing Degree Days 12 (Base 50)    
Moisture  
Dew Point 58 °F    
Average Humidity 83    
Maximum Humidity 93    
Minimum Humidity 67    
Precipitation  
Precipitation 0.10 in - - ()
Sea Level Pressure  
Sea Level Pressure 30.00 in    
Wind  
Wind Speed 8 mph (ESE)    
Max Wind Speed 13 mph    
Max Gust Speed 18 mph    
Visibility 9 miles    
Events Rain    
Averages and records for this station are not official NWS values.
T = Trace of Precipitation, MM = Missing Value Source: NWS Daily Summary

Daily Weather History Graph

Daily Weather History Graph

Search for Another Location

Airport or City:

Trip Planner

Search our weather history database for the weather conditions in past years. The results will help you decide how hot, cold, wet, or windy it might be!

Date:

Astronomy

Jun. 10, 2013 Rise Set
Actual Time 5:28 AM EDT 8:42 PM EDT
Civil Twilight 4:53 AM EDT 9:17 PM EDT
Nautical Twilight 4:08 AM EDT 10:02 PM EDT
Astronomical Twilight 3:14 AM EDT 10:56 PM EDT
Moon 7:16 AM EDT (6/10) 10:05 PM EDT (6/10)
Length of Visible Light 16h 23m
Length of Day
15h 14m
Waxing Crescent, 4% of the Moon is Illuminated
Jun 10
Waxing Crescent
Jun 16
First Quarter
Jun 23
Full
Jun 30
Last Quarter
Jul 8
New

Hourly Weather History & Observations

Time (EDT) Temp. Dew Point Humidity Pressure Visibility Wind Dir Wind Speed Gust Speed Precip Events Conditions
12:56 AM 59.0 °F 52.9 °F 80% 30.16 in 10.0 mi East 9.2 mph - N/A   Clear
1:56 AM 59.0 °F 52.0 °F 78% 30.15 in 10.0 mi East 4.6 mph - N/A   Clear
2:56 AM 59.0 °F 52.9 °F 80% 30.14 in 10.0 mi East 5.8 mph - N/A   Overcast
3:56 AM 59.9 °F 52.9 °F 78% 30.12 in 10.0 mi East 6.9 mph - N/A   Overcast
4:56 AM 59.9 °F 52.9 °F 78% 30.12 in 10.0 mi East 6.9 mph - N/A   Partly Cloudy
5:56 AM 63.0 °F 52.0 °F 67% 30.10 in 10.0 mi East 4.6 mph - N/A   Mostly Cloudy
6:56 AM 63.0 °F 54.0 °F 72% 30.10 in 10.0 mi ESE 5.8 mph - N/A   Scattered Clouds
7:56 AM 63.9 °F 54.9 °F 72% 30.08 in 10.0 mi ESE 4.6 mph - N/A   Scattered Clouds
8:56 AM 64.9 °F 55.9 °F 73% 30.09 in 10.0 mi SE 11.5 mph - N/A   Mostly Cloudy
9:56 AM 65.8 °F 57.9 °F 76% 30.08 in 10.0 mi SE 9.2 mph - N/A   Scattered Clouds
10:56 AM 65.8 °F 59.0 °F 79% 30.06 in 7.0 mi SE 9.2 mph - 0.00 in Rain Light Rain
11:41 AM 64.4 °F 60.8 °F 88% 30.06 in 4.0 mi SE 6.9 mph - 0.00 in Rain Light Rain
11:56 AM 64.9 °F 61.0 °F 87% 30.05 in 4.0 mi SE 9.2 mph - 0.00 in Rain Light Rain
12:56 PM 63.9 °F 61.0 °F 90% 30.02 in 6.0 mi SE 12.7 mph 18.4 mph 0.03 in Rain Light Rain
1:56 PM 63.0 °F 61.0 °F 93% 30.00 in 5.0 mi ESE 10.4 mph - 0.04 in Rain Light Rain
2:56 PM 63.0 °F 59.9 °F 90% 29.97 in 10.0 mi ESE 9.2 mph - 0.01 in Rain Light Rain
3:56 PM 63.9 °F 61.0 °F 90% 29.94 in 7.0 mi ESE 8.1 mph - 0.01 in Rain Light Rain
4:56 PM 63.9 °F 59.9 °F 87% 29.91 in 10.0 mi SE 12.7 mph 18.4 mph 0.01 in   Overcast
5:56 PM 65.8 °F 61.0 °F 84% 29.88 in 10.0 mi ESE 10.4 mph 17.3 mph N/A   Overcast
6:56 PM 64.9 °F 61.0 °F 87% 29.87 in 10.0 mi SE 10.4 mph - N/A   Overcast
7:56 PM 64.9 °F 61.0 °F 87% 29.86 in 10.0 mi SE 10.4 mph - N/A   Overcast
8:56 PM 63.9 °F 61.0 °F 90% 29.83 in 10.0 mi ESE 9.2 mph - 0.00 in Rain Light Rain
9:56 PM 63.9 °F 61.0 °F 90% 29.82 in 10.0 mi SE 8.1 mph - 0.00 in Rain Light Rain
10:56 PM 63.9 °F 61.0 °F 90% 29.80 in 10.0 mi SE 11.5 mph - 0.00 in   Overcast
11:56 PM 63.0 °F 59.9 °F 90% 29.78 in 10.0 mi SE 9.2 mph - 0.00 in   Overcast